Togiak, AK

10:20 AM AKST on February 25, 2017 (GMT -0900)
Togiak

Weather History for PATG - October, 2012

Change the Weather History Date:

Tuesday, October 23, 2012

  Actual Average Record
Temperature  
Mean Temperature 27 °F -  
Max Temperature 37 °F 34 °F 46 °F (2002)
Min Temperature 17 °F 21 °F 10 °F (2008)
Degree Days  
Heating Degree Days 38    
Moisture  
Dew Point 24 °F    
Average Humidity 86    
Maximum Humidity 100    
Minimum Humidity 65    
Precipitation  
Precipitation 0.00 in - - ()
Sea Level Pressure  
Sea Level Pressure 30.33 in    
Wind  
Wind Speed 7 mph (NNW)    
Max Wind Speed 12 mph    
Max Gust Speed -    
Visibility 10 miles    
Events      
Averages and records for this station are not official NWS values.
T = Trace of Precipitation, MM = Missing Value Source: NWS Daily Summary

Daily Weather History Graph

Daily Weather History Graph

Search for Another Location

Airport or City:

Trip Planner

Search our weather history database for the weather conditions in past years. The results will help you decide how hot, cold, wet, or windy it might be!

Date:

Astronomy

Oct. 23, 2012 Rise Set
Actual Time 9:39 AM AKDT 7:10 PM AKDT
Civil Twilight 8:57 AM AKDT 7:52 PM AKDT
Nautical Twilight 8:10 AM AKDT 8:40 PM AKDT
Astronomical Twilight 7:23 AM AKDT 9:26 PM AKDT
Moon 5:09 PM AKDT (10/23) 2:25 AM AKDT (10/23)
Length of Visible Light 10h 55m
Length of Day
9h 31m
Waxing Gibbous, 68% of the Moon is Illuminated
Oct 23
Waxing Gibbous
Oct 29
Full
Nov 6
Last Quarter
Nov 13
New
Nov 20
First Quarter

Hourly Weather History & Observations

Time (AKDT) Temp. Windchill Dew Point Humidity Pressure Visibility Wind Dir Wind Speed Gust Speed Precip Events Conditions
12:16 AM 26.6 °F 18.2 °F 23.0 °F 86% 30.39 in 10.0 mi North 8.1 mph - N/A   Clear
12:36 AM 26.6 °F 17.5 °F 23.0 °F 86% 30.39 in 10.0 mi North 9.2 mph - N/A   Clear
12:56 AM 26.6 °F 16.8 °F 23.0 °F 86% 30.39 in 10.0 mi North 10.4 mph - N/A   Clear
1:16 AM 26.6 °F 17.5 °F 23.0 °F 86% 30.39 in 10.0 mi North 9.2 mph - N/A   Clear
1:36 AM 26.6 °F 17.5 °F 21.2 °F 80% 30.39 in 10.0 mi North 9.2 mph - N/A   Clear
1:56 AM 26.6 °F 17.5 °F 21.2 °F 80% 30.38 in 10.0 mi North 9.2 mph - N/A   Clear
2:16 AM 24.8 °F 16.9 °F 21.2 °F 86% 30.38 in 10.0 mi North 6.9 mph - N/A   Clear
2:36 AM 23.0 °F 13.9 °F 19.4 °F 86% 30.38 in 10.0 mi North 8.1 mph - N/A   Clear
2:56 AM 24.8 °F 16.1 °F 21.2 °F 86% 30.38 in 10.0 mi North 8.1 mph - N/A   Clear
3:16 AM 24.8 °F 16.1 °F 23.0 °F 93% 30.37 in 10.0 mi North 8.1 mph - N/A   Clear
3:36 AM 24.8 °F 15.3 °F 23.0 °F 93% 30.37 in 10.0 mi North 9.2 mph - N/A   Clear
3:56 AM 24.8 °F 16.1 °F 21.2 °F 86% 30.37 in 10.0 mi North 8.1 mph - N/A   Clear
4:16 AM 24.8 °F 16.1 °F 21.2 °F 86% 30.36 in 10.0 mi North 8.1 mph - N/A   Clear
4:36 AM 23.0 °F 14.7 °F 19.4 °F 86% 30.37 in 10.0 mi North 6.9 mph - N/A   Clear
4:56 AM 24.8 °F 16.9 °F 21.2 °F 86% 30.36 in 10.0 mi North 6.9 mph - N/A   Clear
5:16 AM 21.2 °F 13.6 °F 19.4 °F 93% 30.36 in 10.0 mi North 5.8 mph - N/A   Clear
5:36 AM 21.2 °F 11.7 °F 17.6 °F 86% 30.35 in 10.0 mi NNW 8.1 mph - N/A   Clear
5:56 AM 21.2 °F 11.7 °F 17.6 °F 86% 30.34 in 10.0 mi North 8.1 mph - N/A   Clear
6:16 AM 19.4 °F 9.5 °F 17.6 °F 93% 30.35 in 10.0 mi North 8.1 mph - N/A   Clear
6:36 AM 21.2 °F 10.9 °F 19.4 °F 93% 30.34 in 10.0 mi NNW 9.2 mph - N/A   Clear
6:56 AM 23.0 °F 13.9 °F 21.2 °F 93% 30.35 in 10.0 mi NNW 8.1 mph - N/A   Clear
7:16 AM 24.8 °F 16.9 °F 19.4 °F 80% 30.34 in 10.0 mi North 6.9 mph - N/A   Clear
7:36 AM 21.2 °F 13.6 °F 19.4 °F 93% 30.34 in 10.0 mi North 5.8 mph - N/A   Clear
7:56 AM 21.2 °F 11.7 °F 17.6 °F 86% 30.34 in 10.0 mi North 8.1 mph - N/A   Clear
8:16 AM 21.2 °F 11.7 °F 17.6 °F 86% 30.34 in 10.0 mi NNW 8.1 mph - N/A   Clear
8:36 AM 21.2 °F 12.6 °F 19.4 °F 93% 30.34 in 10.0 mi North 6.9 mph - N/A   Clear
8:56 AM 21.2 °F 16.4 °F 19.4 °F 93% 30.35 in 10.0 mi NNE 3.5 mph - N/A   Clear
9:16 AM 19.4 °F 10.4 °F 17.6 °F 93% 30.35 in 10.0 mi NE 6.9 mph - N/A   Clear
9:36 AM 17.6 °F 8.2 °F 15.8 °F 93% 30.35 in 10.0 mi NNE 6.9 mph - N/A   Clear
9:56 AM 17.6 °F 8.2 °F 15.8 °F 93% 30.34 in 10.0 mi NE 6.9 mph - N/A   Clear
10:16 AM 19.4 °F 11.5 °F 17.6 °F 93% 30.35 in 10.0 mi NE 5.8 mph - N/A   Clear
10:36 AM 19.4 °F 14.3 °F 17.6 °F 93% 30.35 in 10.0 mi NNE 3.5 mph - N/A   Clear
10:56 AM 19.4 °F 11.5 °F 19.4 °F 100% 30.34 in 10.0 mi North 5.8 mph - N/A   Clear
11:16 AM 23.0 °F 15.8 °F 21.2 °F 93% 30.34 in 10.0 mi North 5.8 mph - N/A   Clear
11:36 AM 24.8 °F 17.9 °F 21.2 °F 86% 30.33 in 10.0 mi NNE 5.8 mph - N/A   Clear
11:56 AM 26.6 °F 21.2 °F 24.8 °F 93% 30.33 in 10.0 mi North 4.6 mph - N/A   Clear
12:16 PM 26.6 °F 19.1 °F 24.8 °F 93% 30.32 in 10.0 mi North 6.9 mph - N/A   Clear
12:36 PM 30.2 °F 22.6 °F 26.6 °F 86% 30.32 in 10.0 mi North 8.1 mph - N/A   Clear
12:56 PM 30.2 °F 22.6 °F 26.6 °F 86% 30.32 in 10.0 mi North 8.1 mph - N/A   Clear
1:16 PM 32.0 °F 24.2 °F 26.6 °F 80% 30.31 in 10.0 mi North 9.2 mph - N/A   Clear
1:36 PM 33.8 °F 27.7 °F 26.6 °F 75% 30.31 in 10.0 mi NNE 6.9 mph - N/A   Clear
1:56 PM 33.8 °F 28.6 °F 26.6 °F 75% 30.31 in 10.0 mi NE 5.8 mph - N/A   Clear
2:16 PM 35.6 °F 32.8 °F 26.6 °F 70% 30.30 in 5.0 mi NNE 3.5 mph - N/A   Clear
2:36 PM 35.6 °F 31.7 °F 26.6 °F 70% 30.30 in 10.0 mi North 4.6 mph - N/A   Clear
2:56 PM 35.6 °F 30.7 °F 28.4 °F 75% 30.30 in 10.0 mi East 5.8 mph - N/A   Clear
3:16 PM 37.4 °F 34.9 °F 26.6 °F 65% 30.30 in 10.0 mi NNE 3.5 mph - N/A   Clear
3:36 PM 37.4 °F 32.8 °F 28.4 °F 70% 30.29 in 10.0 mi ESE 5.8 mph - N/A   Clear
3:56 PM 37.4 °F - 26.6 °F 65% 30.29 in 10.0 mi Calm Calm - N/A   Clear
4:16 PM 37.4 °F 32.8 °F 28.4 °F 70% 30.29 in 7.0 mi South 5.8 mph - N/A   Clear
4:36 PM 37.4 °F 32.1 °F 28.4 °F 70% 30.29 in 10.0 mi South 6.9 mph - N/A   Clear
4:56 PM 37.4 °F - 26.6 °F 65% 30.29 in 10.0 mi Calm Calm - N/A   Clear
5:16 PM 37.4 °F 34.9 °F 26.6 °F 65% 30.29 in 10.0 mi SSW 3.5 mph - N/A   Clear
5:36 PM 37.4 °F 29.8 °F 32.0 °F 81% 30.28 in 10.0 mi South 11.5 mph - N/A   Clear
5:56 PM 35.6 °F 28.0 °F 32.0 °F 87% 30.29 in 10.0 mi South 10.4 mph - N/A   Clear
6:16 PM 33.8 °F 25.8 °F 30.2 °F 87% 30.29 in 10.0 mi South 10.4 mph - N/A   Clear
6:36 PM 33.8 °F 27.0 °F 30.2 °F 87% 30.29 in 10.0 mi South 8.1 mph - N/A   Clear
6:56 PM 33.8 °F 27.0 °F 30.2 °F 87% 30.29 in 10.0 mi SSW 8.1 mph - N/A   Clear
7:16 PM 33.8 °F 27.0 °F 30.2 °F 87% 30.29 in 10.0 mi SSW 8.1 mph - N/A   Clear
7:36 PM 33.8 °F 27.0 °F 28.4 °F 81% 30.30 in 10.0 mi SW 8.1 mph - N/A   Clear
7:56 PM 32.0 °F 27.5 °F 32.0 °F 100% 30.31 in 10.0 mi WSW 4.6 mph - N/A   Clear
8:16 PM 33.8 °F 26.4 °F 28.4 °F 81% 30.31 in 10.0 mi SSW 9.2 mph - N/A   Clear
8:36 PM 30.2 °F 25.4 °F 26.6 °F 86% 30.31 in 10.0 mi SW 4.6 mph - N/A   Clear
8:56 PM 26.6 °F 19.1 °F 24.8 °F 93% 30.31 in 10.0 mi WSW 6.9 mph - N/A   Clear
9:16 PM 26.6 °F 20.0 °F 26.6 °F 100% 30.31 in 10.0 mi WSW 5.8 mph - N/A   Clear
9:36 PM 26.6 °F 19.1 °F 24.8 °F 93% 30.31 in 10.0 mi West 6.9 mph - N/A   Clear
9:56 PM 26.6 °F 18.2 °F 24.8 °F 93% 30.31 in 10.0 mi WSW 8.1 mph - N/A   Clear
10:16 PM 26.6 °F 19.1 °F 23.0 °F 86% 30.32 in 10.0 mi West 6.9 mph - N/A   Clear
10:36 PM 26.6 °F 18.2 °F 24.8 °F 93% 30.32 in 10.0 mi West 8.1 mph - N/A   Clear
10:56 PM 26.6 °F 18.2 °F 24.8 °F 93% 30.32 in 10.0 mi West 8.1 mph - N/A   Clear
11:16 PM 26.6 °F 19.1 °F 24.8 °F 93% 30.32 in 10.0 mi West 6.9 mph - N/A   Clear
11:36 PM 26.6 °F 21.2 °F 26.6 °F 100% 30.32 in 10.0 mi WNW 4.6 mph - N/A   Clear
11:56 PM 26.6 °F 21.2 °F 24.8 °F 93% 30.33 in 10.0 mi WNW 4.6 mph - N/A   Clear